Terug naar catalogus

DELTA 1 DEB

ActiefSSO
NORAD 37637·DEBRIS·🇺🇸 United States

Gelanceerd Mar 5, 1978 vanaf Vandenberg Space Force Base

Loading…

Volgende Passages (komende 24 uur)

TLE

VersSource: Space-Track

Epoch: Sep 14, 2026, 14:31 UTC

1 37637U 78026HY  26257.60525087  .00000227  00000-0  19067-3 0  9991
2 37637  98.9816 202.1313 0073042 332.9914  26.7455 13.96756008207607

Volg DELTA 1 DEB in realtime met AllMySat

Download on the App Store